Location: Doverdale
(52.2833°N, 2.2000°W)
Time: 03:35:34
(UTC+00:00)

Lacrosse 5 - Pass Details

Date: 29 October 2020
Orbit: 716 x 723 km, 57.0° (Epoch: 06 November)

Event Time Altitude Azimuth Distance (km) Brightness Sun altitude
Rises 18:09:53 0° 283° (WNW) 3,123 6.7 -13.5°
Reaches altitude 10° 18:12:20 10° 289° (WNW) 2,203 5.5 -13.9°
Maximum altitude 18:17:16 50° 5° (N) 911 2.3 -14.6°
Enters shadow 18:20:12 23° 71° (ENE) 1,500 2.9 -15.1°
